TimeEST,TemperatureF,Dew PointF,Humidity,Sea Level PressureIn,VisibilityMPH,Wind Direction,Wind SpeedMPH,Gust SpeedMPH,PrecipitationIn,Events,Conditions,WindDirDegrees,DateUTC
12:55 AM,37.2,29.8,75,30.15,10.0,South,13.8,-,N/A,,Overcast,190,2013-01-09 05:55:00
1:55 AM,38.1,31.6,77,30.13,10.0,SSW,13.8,-,N/A,,Mostly Cloudy,200,2013-01-09 06:55:00
2:55 AM,39.9,32.7,75,30.14,10.0,SSW,15.0,-,N/A,,Overcast,210,2013-01-09 07:55:00
3:55 AM,39.9,32.9,76,30.14,10.0,SW,18.4,-,N/A,,Overcast,220,2013-01-09 08:55:00
4:55 AM,39.7,33.1,77,30.16,10.0,SW,19.6,-,N/A,,Overcast,220,2013-01-09 09:55:00
5:24 AM,39.2,33.8,81,30.16,10.0,SW,16.1,-,N/A,Rain,Light Rain,230,2013-01-09 10:24:00
5:35 AM,39.2,33.8,81,30.16,10.0,SW,18.4,-,N/A,,Overcast,220,2013-01-09 10:35:00
5:55 AM,39.0,33.8,82,30.16,10.0,SW,16.1,-,0.00,,Overcast,230,2013-01-09 10:55:00
6:55 AM,39.2,34.5,83,30.19,10.0,WSW,16.1,-,N/A,,Partly Cloudy,240,2013-01-09 11:55:00
7:55 AM,38.5,34.3,85,30.23,10.0,WSW,15.0,-,N/A,,Clear,250,2013-01-09 12:55:00
8:55 AM,37.9,34.5,87,30.27,10.0,WSW,13.8,-,N/A,,Clear,250,2013-01-09 13:55:00
9:55 AM,38.7,34.7,86,30.30,10.0,WSW,11.5,-,N/A,,Clear,250,2013-01-09 14:55:00
10:31 AM,39.2,33.8,81,30.28,10.0,WSW,13.8,-,N/A,,Clear,250,2013-01-09 15:31:00
10:55 AM,40.3,34.3,79,30.32,10.0,West,13.8,-,N/A,,Clear,270,2013-01-09 15:55:00
11:55 AM,40.3,33.6,77,30.31,10.0,West,15.0,-,N/A,,Clear,260,2013-01-09 16:55:00
12:55 PM,42.4,35.2,76,30.31,10.0,WSW,13.8,-,N/A,,Clear,250,2013-01-09 17:55:00
1:55 PM,44.4,35.8,72,30.32,10.0,West,13.8,-,N/A,,Clear,260,2013-01-09 18:55:00
2:55 PM,46.0,34.5,64,30.33,10.0,West,12.7,-,N/A,,Clear,270,2013-01-09 19:55:00
3:55 PM,45.7,36.1,69,30.37,10.0,West,12.7,-,N/A,,Clear,270,2013-01-09 20:55:00
4:55 PM,42.6,36.5,79,30.39,10.0,West,8.1,-,N/A,,Clear,260,2013-01-09 21:55:00
5:55 PM,39.4,34.2,82,30.41,10.0,WSW,11.5,-,N/A,,Clear,250,2013-01-09 22:55:00
6:55 PM,36.0,32.7,88,30.44,10.0,West,8.1,-,N/A,,Clear,280,2013-01-09 23:55:00
7:55 PM,35.4,30.6,82,30.45,10.0,West,9.2,-,N/A,,Clear,280,2013-01-10 00:55:00
8:55 PM,33.4,27.5,79,30.46,10.0,West,9.2,-,N/A,,Clear,270,2013-01-10 01:55:00
9:55 PM,32.7,26.4,78,30.48,10.0,WSW,9.2,-,N/A,,Clear,250,2013-01-10 02:55:00
10:55 PM,33.8,24.6,69,30.49,10.0,West,5.8,-,N/A,,Clear,280,2013-01-10 03:55:00
11:55 PM,30.9,23.5,74,30.53,10.0,Calm,Calm,-,N/A,,Clear,0,2013-01-10 04:55:00